Memphis, TN

3:59 AM CDT on March 23, 2017 (GMT -0500)
Memphis International

Weather History for KMEM - June, 2012

Change the Weather History Date:

Sunday, June 3, 2012

  Actual Average Record
Temperature  
Mean Temperature 79 °F 77 °F  
Max Temperature 91 °F 86 °F 99 °F (2011)
Min Temperature 67 °F 67 °F 52 °F (1969)
Degree Days  
Heating Degree Days 0 0  
Month to date heating degree days 0 0  
Since 1 June heating degree days 0 0  
Since 1 July heating degree days 2171 2964  
Cooling Degree Days 14 12  
Month to date cooling degree days 19 35  
Year to date cooling degree days 599 356  
Since 1 June cooling degree days 19 35  
Growing Degree Days 28 (Base 50)    
Moisture  
Dew Point 67 °F    
Average Humidity 66    
Maximum Humidity 79    
Minimum Humidity 52    
Precipitation  
Precipitation 0.04 in 0.14 in 1.70 in (1992)
Month to date precipitation 0.04 0.43  
Year to date precipitation 13.36 24.71  
Snow  
Snow 0.00 in 0.00 in - ()
Month to date snowfall 0.0 0.0  
Since 1 June snowfall 0.0 0.0  
Since 1 July snowfall 1.4 3.8  
Snow Depth 0.00 in    
Sea Level Pressure  
Sea Level Pressure 29.89 in    
Wind  
Wind Speed 6 mph (SSW)    
Max Wind Speed 24 mph    
Max Gust Speed 30 mph    
Visibility 10 miles    
Events Rain , Thunderstorm    
T = Trace of Precipitation, MM = Missing Value Source: NWS Daily Summary

Daily Weather History Graph

Daily Weather History Graph

Search for Another Location

Airport or City:

Trip Planner

Search our weather history database for the weather conditions in past years. The results will help you decide how hot, cold, wet, or windy it might be!

Date:

Astronomy

Jun. 03, 2012 Rise Set
Actual Time 5:46 AM CDT 8:10 PM CDT
Civil Twilight 5:17 AM CDT 8:39 PM CDT
Nautical Twilight 4:40 AM CDT 9:15 PM CDT
Astronomical Twilight 4:01 AM CDT 9:55 PM CDT
Moon 7:36 PM CDT (6/3) 4:53 AM CDT (6/3)
Length of Visible Light 15h 22m
Length of Day
14h 23m
Waxing Gibbous, 99% of the Moon is Illuminated
Jun 3
Waxing Gibbous
Jun 4
Full
Jun 11
Last Quarter
Jun 19
New
Jun 26
First Quarter

Hourly Weather History & Observations

Time (CDT) Temp. Heat Index Dew Point Humidity Pressure Visibility Wind Dir Wind Speed Gust Speed Precip Events Conditions
12:54 AM 69.1 °F - 59.0 °F 70% 29.90 in 10.0 mi ESE 3.5 mph - N/A   Scattered Clouds
1:54 AM 69.1 °F - 59.0 °F 70% 29.90 in 10.0 mi SE 4.6 mph - N/A   Scattered Clouds
2:54 AM 69.1 °F - 60.1 °F 73% 29.88 in 10.0 mi ESE 5.8 mph - N/A   Mostly Cloudy
3:54 AM 68.0 °F - 60.1 °F 76% 29.89 in 10.0 mi SE 4.6 mph - N/A   Scattered Clouds
4:54 AM 68.0 °F - 60.1 °F 76% 29.88 in 10.0 mi Calm Calm - N/A   Partly Cloudy
5:54 AM 68.0 °F - 61.0 °F 78% 29.90 in 10.0 mi Calm Calm - N/A   Scattered Clouds
6:54 AM 70.0 °F - 62.1 °F 76% 29.91 in 10.0 mi Calm Calm - N/A   Scattered Clouds
7:54 AM 73.0 °F - 64.0 °F 73% 29.92 in 10.0 mi SW 3.5 mph - N/A   Overcast
8:54 AM 75.9 °F - 66.0 °F 71% 29.94 in 10.0 mi SSW 4.6 mph - N/A   Mostly Cloudy
9:54 AM 80.1 °F 82.7 °F 68.0 °F 67% 29.94 in 10.0 mi Variable 4.6 mph - N/A   Mostly Cloudy
10:54 AM 80.1 °F 82.7 °F 68.0 °F 67% 29.94 in 10.0 mi SW 6.9 mph - N/A   Mostly Cloudy
11:10 AM 78.8 °F - 69.8 °F 74% 29.96 in 10.0 mi SW 10.4 mph - N/A Thunderstorm Thunderstorm
11:54 AM 75.9 °F - 70.0 °F 82% 29.93 in 10.0 mi South 4.6 mph - 0.04 in Rain , Thunderstorm Light Thunderstorms and Rain
12:02 PM 75.2 °F - 71.6 °F 89% 29.94 in 10.0 mi SW 3.5 mph - N/A   Mostly Cloudy
12:54 PM 82.9 °F 88.0 °F 72.0 °F 69% 29.91 in 10.0 mi SW 6.9 mph - 0.00 in   Mostly Cloudy
1:54 PM 87.1 °F 94.5 °F 73.0 °F 63% 29.88 in 10.0 mi SSW 9.2 mph - N/A   Mostly Cloudy
2:54 PM 89.1 °F 96.0 °F 72.0 °F 57% 29.87 in 10.0 mi SSW 8.1 mph - N/A   Mostly Cloudy
3:54 PM 90.0 °F 96.4 °F 71.1 °F 54% 29.86 in 10.0 mi WSW 8.1 mph - N/A   Mostly Cloudy
4:54 PM 91.0 °F 97.6 °F 71.1 °F 52% 29.84 in 10.0 mi WSW 10.4 mph - N/A   Mostly Cloudy
5:54 PM 90.0 °F 94.5 °F 69.1 °F 50% 29.83 in 10.0 mi SW 9.2 mph - N/A   Mostly Cloudy
6:54 PM 88.0 °F 92.1 °F 69.1 °F 53% 29.82 in 10.0 mi SSW 6.9 mph - N/A   Mostly Cloudy
7:54 PM 84.9 °F 90.1 °F 71.1 °F 63% 29.78 in 10.0 mi SSW 10.4 mph - N/A   Mostly Cloudy
8:54 PM 84.0 °F 89.0 °F 71.1 °F 65% 29.84 in 10.0 mi SW 6.9 mph - N/A   Overcast
9:54 PM 79.0 °F - 66.9 °F 66% 29.88 in 10.0 mi NNW 13.8 mph 29.9 mph N/A   Overcast
10:05 PM 78.8 °F - 66.2 °F 65% 29.90 in 10.0 mi NNW 13.8 mph 24.2 mph N/A   Overcast
10:54 PM 73.9 °F - 66.9 °F 79% 29.88 in 10.0 mi North 9.2 mph - 0.00 in   Overcast
11:54 PM 73.0 °F - 66.0 °F 79% 29.86 in 10.0 mi East 6.9 mph - N/A   Mostly Cloudy